WORLDVIEW-2 (WV-2) (35946 NORAD) Tracking and Keplerian Element Data

This shows tracking and keplerian element data for the satellite.

Feedback or suggestion? Click here.




ElementValue
Catalog35946
NameWORLDVIEW-2 (WV-2)
Epoch Orbit80404
Epoch Day34.79484814
Epoch Year2025
RAAN110.2638
Inclination98.4845
Eccentricity0.0002978
Argument of Perigee260.8684
Mean Anonmoly99.2166
Mean Motion14.37095251
Decay Rate3.87E-06
L11 35946U 09055A 25034.79484814 .00000387 00000+0 14505-3 0 9990
L22 35946 98.4845 110.2638 0002978 260.8684 99.2166 14.37095251804044



Live tracking and technical data element details for WORLDVIEW-2 (WV-2) (NORAD 35946). WORLDVIEW-2 (WV-2) can be tracked NOW for your location showing map with azimuth and elevation plus other details from your city location.







IsCatalogInMostPopularTable: catalog: 35946, numindb: 433
Update: records affected: 1



GetName: 35946 WORLDVIEW-2 (WV-2)

Hit Count: updated at: Fri, 16 May 2025 11:39:50 GMT